WORLDVIEW 2 DEB, 41742

Orbit data source: Space-Track

WORLDVIEW 2 DEB, 41742 is space debris in SSO originally from a launch on Thu, 08 Oct 2009 UTC launched from the Air Force Western Test Range (AFWTR). Debris objects in space refer to the collection of defunct objects orbiting the Earth. Examples of debris include non-operational satellites, rocket bodies, and fragments generated from explosions, collisions, or faulty payload assembly.

Loading next visibility...
Identifier
41742, 2009-055K
Orbit
SSO
Last TLE update
18 hours ago
Origin
Manufacturer
Ball
Mission
Spacecraft
Bus & Motor
Unknown
Mass
Unknown
Launch date (UTC)
2009-10-08 (16 years ago)
Launch vehicle
Unknown
Launch site
Air Force Western Test Range (AFWTR)
Object type
Payload
Rocket body
Debris
Shape & HBR
Unknown
Radar Cross Section
Small (<0.1 m²)

Expand to show TLE details & history

TLE from 18 hours ago
0 WORLDVIEW 2 DEB
1 41742U 09055K   25128.51466762  .00005659  00000-0  13376-2 0  9999
2 41742  98.3601 216.8426 0007702  28.9365 331.2257 14.54505678463208
Epoch: 2025-05-08T12:21Z
Definitive object data (Epoch: 2025-05-08T12:21:07.282Z)
Latitude
-0.00004°
Longitude
164.9782°
Altitude
709.157 km
Speed
7.504 km/s
True Right ascension
14h 27m 22s
True Declination
0° 00' 00"
Sunlit
Object was in full shadow at TLE epoch
Visualization TLE readout
Latitude
-36.13529°
Longitude
171.85395°
Altitude
722.152 km
Speed
7.494 km/s
Apparent Right ascension
17h 01m 52s
Apparent Declination
-82° 54' 28"
Sunlit
Object is in full shadow
Visualization observer readout
Local Sidereal Time
14:29:35
Azimuth
174.718° S
Elevation
-34.208°
Doppler factor
1
Orbital elements
Apogee altitude
713.524 km
Perigee altitude
702.609 km
Semi-major axis
7,086.203 km
Eccentricity
0.0007702
Inclination
98.3601°
RAAN
216.8426°
Arg. of periapsis
28.9365°
True anomaly
331.18318°
Mean anomaly
331.2257°
Eccentric anomaly
331.20444°
Mean motion
3.6385 °/min
BSTAR
0.0013376
Orbital period
98.94 mins
Loading maneuver chart data...
Loading SW <> Apogee altitude chart data...

WORLDVIEW 2 DEB Visibility forecast

Observer location: undefined°, undefined°

Span
Click to sort rows by Start time (UTC) header in descending order
Start Az.
Max El. time (UTC)
Max El. Az.
Max El.
End time (UTC)
End Az.
7 mins2025-05-09 06:37:46.319Z206.994° SW2025-05-09 06:41:46.319Z271.834° WNW25.422°2025-05-09 06:44:46.319Z318.043° NNW
7 mins2025-05-09 18:39:46.319Z19.465° NNE2025-05-09 18:42:46.319Z123.428° SE44.132°2025-05-09 18:46:46.319Z188.381° SSW
7 mins2025-05-10 05:45:46.319Z160.469° S2025-05-10 05:48:46.319Z72.974° E44.665°2025-05-10 05:52:46.319Z349.439° N
|